Regional Weather Roundup
Issued by NWS Goodland, KS

Home | Current Version | Previous Version | Text Only | Print | Product List | Glossary Off
Versions: 1 2 3 4 5 6 7 8 9 10 11 12 13 14 15 16 17 18 19 20 21 22 23 24 25 26 27 28 29 30 31 32 33 34 35 36 37 38 39 40 41 42 43 44 45 46 47 48 49 50

000
ASUS43 KGLD 220459
RWRGLD

GOODLAND FORECAST AREA HOURLY WEATHER ROUNDUP
NATIONAL WEATHER SERVICE GOODLAND KS
1100 PM MDT MON MAY 21 2018

...OFFICIAL OBSERVATIONS...

CITY           SKY/WX    TMP DP  RH WIND       PRES   REMARKS
GOODLAND KS    PTCLDY    61  54  77 S12       29.92F
HILL CITY KS   CLOUDY    68  60  75 SE10      29.94F
IMPERIAL NEB   MOCLDY    63  58  83 E8        29.89F
MCCOOK NEB     PTCLDY    68  59  73 SE8       29.90F
AKRON CO       MOCLDY    58  55  90 SE7       29.95F
BURLINGTON CO  CLEAR     54  42  64 SW10      29.96F
LIMON CO       MOCLDY    53  40  61 E7        30.00F
$$

...UNOFFICIAL OBSERVATIONS...

CITY           SKY/WX    TMP DP  RH WIND       PRES   REMARKS
NORTON KS      CLEAR     70  61  73 SE10      29.92
SHARON SPRINGS   N/A     63  55  74 MISG        N/A
KIT CARSON CO    N/A     57  39  52 CALM        N/A
YUMA CO        FAIR      57  48  72 SW10      29.93F
$$



USA.gov is the U.S. government's official web portal to all federal, state and local government web resources and services.